CAPE
3 27 16 8 1 11 0 2 4 0 0 74 22 29 0 0 147 102 41 51 23 12 0 0 0 0 0 0 0 0 0 0 0 0 0 0 0 0 0 0 0 0 0 0
49 43 28 29 7 1 3 7 3 0 0 6 40 7 3 3 14 75 69 110 28 58 24 1 0 0 0 0 0 0 0 0 0 0 0 0 0 0 0 0 0 0 0 0
45 9 13 25 7 13 2 1 4 3 0 28 17 6 1 0 0 88 73 156 49 29 54 31 0 0 0 0 0 0 0 0 0 0 0 0 0 0 0 0 0 0 0 0
40 18 22 46 27 0 1 0 1 4 10 6 19 0 11 0 0 11 59 16 5 3 0 12 0 0 0 0 0 0 0 0 0 0 0 0 0 0 0 0 0 0 0 0
13 17 14 13 1 0 0 0 2 6 10 14 8 1 10 0 0 0 69 19 10 7 0 8 0 0 0 0 0 0 0 0 0 0 0 0 0 0 0 0 0 0 0 0
13 8 19 11 1 5 3 0 6 8 4 1 7 3 3 2 0 0 49 73 35 17 0 0 0 0 0 0 0 0 0 0 0 0 0 0 0 0 0 0 0 0 0 0
4 9 6 1 24 6 0 3 0 0 0 0 1 0 0 0 0 0 0 90 61 5 0 0 0 0 0 0 0 0 0 0 0 0 0 0 0 0 0 0 0 0 0 0
0 20 26 11 27 11 3 2 0 0 0 1 9 0 2 0 0 0 1 56 75 0 0 0 0 0 0 0 0 0 0 0 0 0 0 0 0 0 0 0 0 0 0 0
4 8 30 4 12 3 1 19 0 1 0 0 2 3 0 0 1 0 11 13 0 1 0 2 3 1 0 0 0 0 0 0 0 0 0 0 0 0 0 0 0 0 0 0
6 2 5 26 0 16 28 5 8 0 0 0 6 3 11 0 3 1 1 0 1 1 0 2 2 2 0 0 0 0 0 0 0 0 0 0 0 0 0 0 0 0 0 0
0 1 0 8 3 3 4 16 0 0 0 0 0 5 0 0 0 1 1 0 1 2 2 1 0 0 0 0 0 0 0 0 0 0 0 0 0 0 0 0 0 0 0 0
0 0 0 2 1 2 0 3 0 0 0 0 0 5 0 0 0 0 0 0 1 0 1 1 0 0 0 0 0 0 0 0 0 0 0 0 0 0 0 0 0 0 0 0
0 0 0 2 4 7 1 1 0 0 0 0 0 4 0 0 0 0 0 0 0 0 0 0 0 0 0 0 0 0 0 0 0 0 0 0 0 0 0 0 0 0 0 0
0 0 3 7 11 5 4 1 0 0 0 0 0 0 0 0 0 0 0 0 0 0 0 0 0 0 0 0 0 0 0 0 0 0 0 0 0 0 0 0 0 0 0 0
0 0 0 0 0 0 3 1 0 2 0 0 0 0 0 0 0 0 0 0 0 0 0 0 0 0 0 0 0 0 0 0 0 0 0 0 0 0 0 0 0 0 0 0
0 0 0 0 0 0 0 0 0 0 0 0 0 0 0 0 0 0 0 0 0 0 0 0 0 0 0 0 0 0 0 0 0 0 0 0 0 0 0 0 0 0 0 0
0 1 0 0 0 0 0 0 0 0 0 0 0 0 0 0 0 0 0 0 0 0 0 0 0 0 0 0 0 0 0 0 0 0 0 0 0 0 0 0 0 0 0 0
1 0 0 0 0 0 0 0 0 0 0 0 0 0 0 0 0 0 0 0 0 0 0 0 0 0 0 0 0 0 0 0 0 0 0 0 0 0 0 0 0 0 0 0
1 2 0 0 0 0 0 0 1 0 0 1 0 0 0 0 0 0 0 0 0 0 0 0 0 0 0 0 0 0 0 0 0 0 0 0 0 0 0 0 0 0 0 0
0 3 2 0 0 0 0 0 0 0 0 0 0 0 0 0 0 0 0 0 0 0 0 0 0 0 0 0 0 0 0 0 0 0 0 0 0 0 0 0 0 0 0 0
1 2 0 1 0 0 0 0 0 0 0 0 0 0 0 0 0 0 0 0 0 0 0 0 0 0 0 0 0 0 0 0 0 0 0 0 0 0 0 0 0 0 0 0
0 0 1 0 0 0 0 0 0 0 0 0 0 0 0 0 0 0 0 0 0 0 0 0 0 0 0 0 0 0 0 0 0 0 0 0 0 0 0 0 0 0 0 0
0 0 0 0 0 0 0 0 0 0 0 0 0 0 0 0 0 0 0 0 0 0 0 0 0 0 0 0 0 0 0 0 0 0 0 0 0 0 0 0 0 0 0 0
0 0 0 0 0 0 0 0 0 0 0 0 0 0 0 0 0 0 0 0 0 0 0 0 0 0 0 0 0 0 0 0 0 0 0 0 0 0 0 0 0 0 0 0
0 0 0 0 0 0 0 0 0 0 0 0 0 0 0 0 0 0 0 0 0 0 0 0 0 0 0 0 0 0 0 0 0 0 0 0 0 0 0 0 0 0 0 0
0 0 0 0 0 0 0 0 0 0 0 0 0 0 0 0 0 0 0 0 0 0 0 0 0 0 0 0 0 0 0 0 0 0 0 0 0 0 0 0 0 0 0 0
CIN
-9 -2 -32 0 0 -3 0 0 0 0 0 0 -1 -1 0 0 -64 -73 -86 -104 -139 -166 0 0 0 0 0 0 0 0 0 0 0 0 0 0 0 0 0 0 0 0 0 0
0 0 -2 -1 -6 0 0 0 0 0 0 0 -1 -2 -1 -72 -108 -105 -92 -78 -93 -73 -127 -35 0 0 0 0 0 0 0 0 0 -4 0 0 0 0 0 0 0 0 0 0
-12 0 -5 -7 0 0 0 0 0 0 0 0 -2 -1 0 0 -24 -67 -102 -129 -131 -150 -110 -117 -10 0 0 0 0 0 0 0 0 0 0 0 0 0 0 0 0 0 0 0
0 0 -2 -1 0 -2 0 0 0 0 0 0 -1 0 0 0 0 -35 -47 -97 -99 -85 0 -89 -10 0 0 0 0 0 0 0 0 0 0 0 0 0 0 0 0 0 0 0
-6 0 0 -3 0 0 0 0 0 0 0 0 0 0 -1 -2 0 0 -16 -84 -115 -131 0 -71 0 0 0 0 0 0 0 0 0 0 0 0 0 0 0 0 0 0 0 0
-5 -7 0 0 -4 -6 0 0 0 0 0 0 0 0 0 0 0 0 -22 -60 -94 -99 0 0 0 0 0 0 0 0 0 0 0 0 0 0 0 0 0 0 0 0 0 0
0 -11 -4 -5 -15 -1 0 0 0 0 0 0 0 0 0 0 0 0 -2 -48 -65 -71 0 0 0 0 0 0 0 0 0 0 0 0 0 0 0 0 0 0 0 0 0 0
0 -16 -14 -35 -6 0 0 0 0 0 0 0 0 0 0 0 0 0 -25 -92 -60 0 0 0 0 0 0 0 0 0 0 0 0 0 0 0 0 0 0 0 0 0 0 0
0 -1 -16 -11 -8 -4 0 -1 0 -1 0 0 0 0 0 0 -16 0 -71 -30 0 0 0 0 0 0 0 0 0 0 0 0 0 0 0 0 0 0 0 0 0 0 0 0
-3 -1 -1 0 0 -16 -15 -29 -4 0 0 0 0 0 0 0 0 0 0 0 0 0 0 0 0 0 0 0 0 0 0 0 0 0 0 0 0 0 0 0 0 0 0 0
0 -8 0 -1 0 0 -9 -7 -14 0 0 0 0 0 0 0 0 0 0 0 0 0 0 0 0 0 0 0 0 0 0 0 0 0 0 0 0 0 0 0 0 0 0 0
0 0 0 0 0 -1 0 0 -2 0 0 0 0 0 0 0 0 0 0 0 0 0 0 0 0 0 0 0 0 0 0 0 0 0 0 0 0 0 0 0 0 0 0 0
0 0 0 -19 -4 -4 0 0 0 0 0 0 0 0 0 0 0 0 0 0 0 0 0 0 0 0 0 0 0 0 0 0 0 0 0 0 0 0 0 0 0 0 0 0
0 0 -9 -1 -1 0 0 0 0 0 0 0 0 0 0 0 0 0 0 0 0 0 0 0 0 0 0 0 0 0 0 0 0 0 0 0 0 0 0 0 0 0 0 0
0 0 0 0 0 0 0 0 -1 0 0 -1 0 0 0 0 0 0 0 0 0 0 0 0 0 0 0 0 0 0 0 0 0 0 0 0 0 0 0 0 0 0 0 0
0 0 0 0 0 0 0 0 0 0 0 0 0 0 0 0 0 0 0 0 0 0 0 0 0 0 0 0 0 0 0 0 0 0 0 0 0 0 0 0 0 0 0 0
0 0 0 0 0 0 0 0 0 0 0 0 0 0 0 0 0 0 0 0 0 0 0 0 0 0 0 0 0 0 0 0 0 0 0 0 0 0 0 0 0 0 0 0
0 0 0 0 0 0 0 0 0 -3 0 0 0 0 0 0 0 0 0 0 0 0 0 0 0 0 0 0 0 0 0 0 0 0 0 0 0 0 0 0 0 0 0 0
0 0 0 0 0 0 0 0 -1 -3 0 -7 0 0 0 0 0 0 0 0 0 0 0 0 0 0 0 0 0 0 0 0 0 0 0 0 0 0 0 0 0 0 0 0
0 0 0 0 0 0 0 0 0 0 0 0 0 0 0 0 0 0 0 0 0 0 0 0 0 0 0 0 0 0 0 0 0 0 0 0 0 0 0 0 0 0 0 0
0 0 0 0 0 0 0 0 0 0 0 0 0 0 0 0 0 0 0 0 0 0 0 0 0 0 0 0 0 0 0 0 0 0 0 0 0 0 0 0 0 0 0 0
0 0 -1 0 0 0 0 0 0 0 0 0 0 0 0 0 0 0 0 0 0 0 0 0 0 0 0 0 0 0 0 0 0 0 0 0 0 0 0 0 0 0 0 0
0 0 0 0 0 0 0 0 0 0 0 0 0 0 0 0 0 0 0 0 0 0 0 0 0 0 0 0 0 0 0 0 0 0 0 0 0 0 0 0 0 0 0 0
0 0 0 0 0 0 0 0 0 0 0 0 0 0 0 0 0 0 0 0 0 0 0 0 0 0 0 0 0 0 0 0 0 0 0 0 0 0 0 0 0 0 0 0
0 0 0 0 0 0 0 0 0 0 0 0 0 0 0 0 0 0 0 0 0 0 0 0 0 0 0 0 0 0 0 0 0 0 0 0 0 0 0 0 0 0 0 0
0 0 0 0 0 0 0 0 0 0 0 0 0 0 0 0 0 0 0 0 0 0 0 0 0 0 0 0 0 0 0 0 0 0 0 0 0 0 0 0 0 0 0 0
Wind_Speed
13 14 12 24 13 7 3 4 8 10 10 24 26 23 10 20 17 14 14 15 16 16 13 16 15 14 13 12 12 12 11 10 8 8 7 5 5 5 5 6 8 7 6 6
13 21 13 9 11 10 6 7 13 11 9 24 24 30 17 7 15 18 18 18 15 14 14 16 16 15 15 14 14 12 12 10 9 8 5 6 6 5 6 6 7 7 7 6
15 6 9 10 13 14 6 4 4 7 4 21 15 32 22 7 4 10 13 17 18 18 18 15 14 15 12 13 13 12 11 11 8 11 10 9 9 6 4 5 5 5 7 7
9 9 12 16 15 8 8 11 7 7 5 6 24 8 27 18 11 14 13 12 15 15 10 13 12 12 13 11 9 8 8 8 9 12 12 14 6 7 3 4 5 5 7 7
5 8 10 22 15 10 6 10 4 4 11 5 12 5 11 23 13 11 16 16 15 16 14 10 11 12 9 10 9 7 8 8 9 10 11 10 10 9 7 6 8 7 6 6
5 0 2 3 12 8 13 4 1 1 1 4 8 3 6 25 25 15 15 17 16 14 14 12 10 13 10 9 10 8 10 8 8 9 10 13 16 13 10 7 6 5 4 4
3 5 5 5 10 10 7 7 3 4 3 2 4 5 3 23 21 17 15 16 17 16 18 17 13 12 10 9 10 9 9 9 8 11 11 12 13 13 12 9 7 7 4 3
2 3 1 2 2 6 10 7 2 4 1 2 7 5 2 4 7 11 11 14 17 13 12 16 17 12 11 9 9 11 10 11 9 12 11 10 11 8 6 6 6 5 4 4
4 2 1 5 4 1 4 4 5 3 2 0 2 2 2 3 7 9 12 16 16 14 13 13 12 12 13 12 8 10 11 11 10 10 9 9 10 10 8 7 5 4 5 6
6 3 4 2 4 2 3 5 2 2 1 1 1 2 2 4 7 9 12 14 14 13 13 12 9 8 10 11 9 8 8 11 11 10 7 7 7 9 6 6 6 5 5 5
7 3 6 2 6 3 4 2 3 2 3 0 2 3 4 2 7 12 11 11 12 14 13 11 10 9 9 10 9 9 8 9 8 8 8 8 7 7 7 5 6 5 6 6
3 3 2 2 4 1 3 3 2 3 2 2 1 3 4 5 8 11 12 13 11 11 11 10 10 9 9 9 9 10 9 9 7 6 8 8 6 6 4 4 5 6 6 5
7 4 2 2 3 3 3 5 3 3 4 1 1 1 5 10 11 10 14 11 10 11 11 9 8 8 8 9 8 7 8 11 8 6 7 7 7 7 6 5 6 6 7 6
2 3 2 4 4 3 3 3 3 3 3 1 1 3 3 4 10 9 9 9 9 9 10 9 8 8 9 10 10 10 8 6 6 5 6 6 6 6 6 5 5 5 5 5
6 3 3 2 3 3 5 5 3 0 1 3 4 3 4 6 8 9 10 10 10 9 9 9 10 10 10 10 8 6 5 6 5 6 5 5 5 5 6 6 6 5 5 5
10 4 6 3 3 3 3 7 0 2 2 1 2 2 1 5 8 7 10 10 9 9 9 10 10 11 10 10 9 7 6 6 6 6 6 6 6 6 5 5 5 5 5 5
7 6 6 4 5 7 5 5 5 2 0 2 2 2 3 4 6 9 9 10 10 10 12 12 11 10 8 9 8 8 6 6 6 6 6 6 6 6 6 5 5 5 6 5
5 6 3 4 4 3 4 4 3 4 2 3 3 2 4 4 4 5 4 7 8 10 11 9 8 7 6 5 6 6 7 7 6 6 6 6 6 6 6 6 6 5 4 5
4 4 4 2 3 5 2 4 2 2 2 1 4 2 5 4 5 6 4 4 6 8 8 8 8 6 6 8 7 7 6 5 5 6 6 7 6 6 6 6 6 5 4 5
3 6 3 3 1 3 3 5 6 5 1 3 3 3 4 3 3 2 3 3 5 5 4 6 6 5 7 6 7 7 7 6 8 8 7 6 6 6 7 7 6 4 4 6
4 3 3 3 3 6 5 8 6 2 1 5 4 2 4 2 1 4 4 6 4 5 5 4 5 5 4 6 6 7 6 9 3 4 6 6 7 8 7 6 4 4 5 5
6 6 3 0 2 4 5 4 3 2 5 3 3 2 6 7 6 6 6 6 7 7 7 7 6 5 4 4 4 4 6 4 5 5 5 6 6 5 4 5 4 3 4 4
1 3 4 4 3 2 4 2 3 3 3 4 2 4 7 7 6 6 5 5 6 6 5 3 5 4 3 3 2 3 4 4 3 3 4 4 3 4 4 5 3 2 4 5
2 3 1 3 4 4 6 4 5 4 3 4 6 6 6 9 7 6 6 6 5 4 6 4 5 4 3 3 2 4 2 2 3 4 4 2 3 3 3 3 4 5 5 6
1 4 1 1 2 1 6 6 5 6 8 10 9 7 8 8 6 5 5 6 5 4 3 2 2 2 3 4 4 4 3 3 4 3 3 4 3 4 4 6 6 7 7 9
2 1 0 2 3 1 2 5 7 8 7 8 9 9 8 6 7 5 5 4 3 3 3 4 4 5 5 5 5 5 3 3 3 5 3 3 3 3 4 5 8 16 22 21
Wind_Direction
262 233 235 199 201 169 159 213 243 247 281 204 199 223 246 175 193 179 183 180 180 182 171 169 168 167 168 172 169 171 165 170 139 133 129 117 102 94 77 69 58 55 60 63
254 242 201 186 166 184 168 225 249 288 246 205 206 219 232 182 179 178 183 177 175 162 160 164 165 166 166 170 173 167 170 166 152 152 125 115 117 93 90 80 66 63 65 65
239 265 198 152 165 170 171 171 219 262 320 221 205 206 231 216 197 194 194 189 175 165 163 162 165 167 159 167 168 168 171 173 160 124 109 100 100 100 89 73 70 52 65 64
258 228 204 177 185 173 182 178 215 270 251 235 189 210 218 217 212 176 183 183 188 179 164 160 163 170 167 165 164 159 167 151 136 141 134 148 144 136 113 108 100 76 63 66
226 177 236 181 188 177 187 166 224 335 262 248 179 151 192 210 222 205 184 185 184 189 162 155 138 123 114 120 112 103 105 117 135 138 142 130 111 108 114 117 107 94 76 66
316 236 224 246 158 172 133 103 330 270 167 230 197 145 187 190 202 211 188 184 175 171 134 122 117 115 106 98 97 95 108 97 117 117 123 126 131 134 132 132 117 109 104 91
331 267 163 224 128 126 100 81 213 237 210 188 245 113 279 201 192 207 191 177 164 154 144 132 136 129 121 113 107 105 108 91 97 113 114 127 131 134 134 135 141 145 117 94
253 148 19 354 358 151 125 160 141 292 357 99 131 187 122 11 158 212 184 163 148 146 149 141 143 131 117 102 94 99 107 93 108 103 105 112 114 119 122 135 131 130 122 121
338 18 128 15 345 134 179 215 160 195 219 102 147 265 315 41 81 132 140 145 144 139 134 134 128 131 127 118 115 109 115 103 99 109 121 123 124 124 124 118 113 120 104 107
316 357 16 5 330 92 204 142 130 15 19 18 193 93 55 140 131 114 125 132 126 121 118 117 120 122 119 112 111 108 118 121 122 107 99 99 102 110 110 101 99 99 100 105
1 5 326 16 19 357 38 126 44 164 114 241 133 71 223 265 161 136 124 121 128 130 125 123 121 116 116 112 125 113 105 113 108 110 116 119 97 81 88 115 135 137 120 133
321 314 65 298 297 31 36 318 283 118 318 338 336 75 328 224 138 136 125 124 122 118 121 127 130 128 132 127 119 121 118 109 105 111 128 114 122 126 141 142 121 131 125 117
329 348 19 251 179 152 59 311 302 94 80 254 64 87 18 85 108 126 128 128 129 124 123 127 129 137 130 112 113 110 123 131 163 173 147 144 147 142 134 146 148 134 128 138
267 321 3 15 12 353 344 322 354 62 78 312 312 144 81 82 118 122 121 123 125 126 131 132 132 135 135 138 153 159 155 135 133 157 156 153 143 145 153 156 138 129 146 143
17 332 9 298 317 24 315 337 315 236 4 77 316 79 169 163 154 149 134 129 131 137 147 154 149 149 158 161 165 150 150 164 160 161 162 163 147 141 160 150 147 154 148 150
347 323 349 293 242 184 285 291 232 295 353 21 84 73 358 109 107 130 147 147 151 154 157 155 155 160 165 176 176 175 168 165 167 168 174 156 157 158 169 162 160 155 155 155
341 349 350 292 342 349 346 242 184 138 154 65 35 30 131 110 139 158 157 161 163 164 166 171 171 172 183 190 176 182 167 161 175 173 173 171 161 175 187 175 166 177 177 170
317 334 331 296 0 10 266 333 304 139 138 70 320 41 57 126 88 104 142 154 161 166 171 171 172 177 188 173 170 153 166 174 179 186 180 171 178 190 187 184 193 193 180 193
210 310 314 321 256 287 349 353 38 133 141 148 280 66 61 95 91 41 20 160 168 167 167 173 175 175 164 181 173 162 162 168 178 199 197 196 187 191 190 201 202 198 191 207
206 266 334 310 336 206 278 315 347 301 314 10 302 161 142 148 95 226 14 41 84 91 119 165 168 161 168 160 141 154 178 176 205 208 202 193 194 199 204 205 200 191 204 214
162 185 207 292 286 292 317 302 308 95 317 330 334 94 149 97 43 100 67 47 50 53 60 87 114 144 144 144 149 184 180 211 208 173 190 200 202 207 209 202 186 191 209 216
156 141 170 196 299 309 342 315 26 320 310 325 340 59 92 103 85 75 62 53 56 53 43 41 76 68 58 102 138 191 218 210 192 182 197 207 209 209 191 191 205 205 191 211
186 160 186 178 229 305 304 322 323 288 284 338 31 67 114 109 83 80 80 66 63 67 66 50 83 88 58 42 135 187 245 199 182 176 214 216 210 209 196 200 198 206 196 217
301 51 103 57 335 347 337 351 17 353 45 27 54 65 70 99 88 94 84 69 64 47 44 36 47 44 354 346 320 241 286 223 164 215 228 222 220 228 224 221 209 219 218 224
248 350 58 325 316 306 38 24 356 37 51 62 55 60 82 89 78 94 80 69 56 49 19 24 36 13 330 339 301 289 265 174 217 233 235 233 224 225 241 234 228 231 237 217
360 314 1 239 327 51 18 10 10 49 42 42 73 60 37 61 91 88 78 49 44 38 355 17 11 4 343 341 318 322 313 214 218 260 254 240 234 231 239 246 272 248 251 248